TimeCDT,TemperatureF,Dew PointF,Humidity,Sea Level PressureIn,VisibilityMPH,Wind Direction,Wind SpeedMPH,Gust SpeedMPH,PrecipitationIn,Events,Conditions,WindDirDegrees,DateUTC
12:55 AM,57.2,57.2,100,29.94,2.0,SSW,4.6,-,N/A,,Mostly Cloudy,210,2013-03-31 05:55:00
1:55 AM,57.2,57.2,100,29.93,0.2,SSW,4.6,-,N/A,,Overcast,210,2013-03-31 06:55:00
2:55 AM,57.2,57.2,100,29.90,2.5,South,3.5,-,N/A,,Overcast,180,2013-03-31 07:55:00
3:15 AM,57.2,57.2,100,29.89,1.0,South,3.5,-,N/A,,Overcast,180,2013-03-31 08:15:00
3:35 AM,55.4,55.4,100,29.90,1.2,South,4.6,-,N/A,,Overcast,190,2013-03-31 08:35:00
3:55 AM,55.4,55.4,100,29.89,0.5,South,4.6,-,N/A,,Overcast,180,2013-03-31 08:55:00
4:15 AM,55.4,55.4,100,29.89,0.5,Variable,3.5,-,N/A,,Overcast,0,2013-03-31 09:15:00
4:35 AM,55.4,55.4,100,29.90,0.5,SSW,4.6,-,N/A,,Overcast,210,2013-03-31 09:35:00
4:55 AM,55.4,55.4,100,29.88,0.5,Calm,Calm,-,N/A,,Overcast,0,2013-03-31 09:55:00
5:15 AM,55.4,55.4,100,29.88,0.8,South,3.5,-,N/A,,Overcast,170,2013-03-31 10:15:00
5:35 AM,55.4,55.4,100,29.89,2.0,Calm,Calm,-,N/A,,Overcast,0,2013-03-31 10:35:00
5:55 AM,55.4,55.4,100,29.89,2.0,SSE,3.5,-,N/A,,Overcast,150,2013-03-31 10:55:00
6:55 AM,55.4,55.4,100,29.89,2.0,Calm,Calm,-,N/A,,Overcast,0,2013-03-31 11:55:00
7:55 AM,55.4,55.4,100,29.91,0.8,Calm,Calm,-,N/A,Fog,Fog,0,2013-03-31 12:55:00
8:55 AM,59.0,59.0,100,29.90,0.2,Calm,Calm,-,N/A,Fog,Fog,0,2013-03-31 13:55:00
9:55 AM,60.8,60.8,100,29.92,2.0,West,5.8,-,N/A,,Overcast,270,2013-03-31 14:55:00
10:55 AM,57.2,57.2,100,29.96,2.0,NNW,12.7,-,N/A,,Overcast,330,2013-03-31 15:55:00
11:55 AM,55.4,53.6,94,29.98,10.0,NNW,15.0,-,N/A,,Overcast,340,2013-03-31 16:55:00
12:55 PM,55.4,53.6,94,29.96,10.0,NNE,3.5,-,N/A,,Overcast,30,2013-03-31 17:55:00
1:55 PM,57.2,53.6,88,29.91,10.0,East,4.6,-,N/A,,Overcast,90,2013-03-31 18:55:00
2:55 PM,60.8,53.6,77,29.91,10.0,ESE,5.8,-,N/A,,Overcast,110,2013-03-31 19:55:00
3:55 PM,62.6,53.6,72,29.90,10.0,NE,3.5,-,N/A,,Mostly Cloudy,40,2013-03-31 20:55:00
4:55 PM,62.6,51.8,68,29.89,10.0,NE,4.6,-,N/A,,Mostly Cloudy,40,2013-03-31 21:55:00
5:55 PM,64.4,51.8,64,29.89,10.0,Variable,3.5,-,N/A,,Scattered Clouds,0,2013-03-31 22:55:00
6:55 PM,62.6,51.8,68,29.90,10.0,NNW,3.5,-,N/A,,Scattered Clouds,330,2013-03-31 23:55:00
7:55 PM,57.2,48.2,72,29.92,10.0,Calm,Calm,-,N/A,,Clear,0,2013-04-01 00:55:00
8:55 PM,53.6,48.2,82,29.92,10.0,Calm,Calm,-,N/A,,Clear,0,2013-04-01 01:55:00
10:55 PM,51.8,48.2,88,29.94,10.0,Calm,Calm,-,N/A,,Clear,0,2013-04-01 03:55:00